SCOUT A R/B, 2180

Orbit data source: Space-Track

SCOUT A R/B, 2180 is space debris in LEO originally from a launch on Thu, 19 May 1966 UTC launched from the Air Force Western Test Range (AFWTR). Debris objects in space refer to the collection of defunct objects orbiting the Earth. Examples of debris include non-operational satellites, rocket bodies, and fragments generated from explosions, collisions, or faulty payload assembly.

Loading next visibility...
Identifier
2180, 1966-041B
Orbit
LEO
Country
Flag of USUS
Related business
Manufacturer
ABL
Mission
Spacecraft
Bus & Motor
ALTAIR, Unknown motor
Mass
33 kg wet, 33 kg dry
Launch date (UTC)
1966-05-19 (60 years ago)
Launch vehicle
Unknown
Launch site
Air Force Western Test Range (AFWTR)
Object type
Payload
Rocket body
Debris
Shape & HBR
Unknown
Radar Cross Section
Medium (>0.1 m² and <1 m²)

Expand to show TLE details & history
Last TLE update: 15 hours ago

TLE from 15 hours ago
0 SCOUT A R/B
1 02180U 66041B   25352.23901755  .00000360  00000-0  22760-3 0  9996
2 02180  90.2270  78.1079 0078643 170.5622 189.7058 14.01038122 37938
Epoch: 2025-12-18T05:44Z
TLE epoch observation values (Epoch: 2025-12-18T05:44:11.116Z)
Latitude
0.00001°
Longitude
-95.0358°
Altitude
949.597 km
Speed
7.348 km/s
True Right ascension
05h 12m 25s
True Declination
0° 00' 00"
Sunlit
Object was in full shadow at epoch
Visualization orbit readout
Latitude
Unknown
Longitude
Unknown
Altitude
Unknown
Speed
Unknown
Apparent Right ascension
Unknown
Apparent Declination
Unknown
Sunlit
N/A
Visualization observer readout
Local Sidereal Time
19:51:11
Azimuth
Unknown
Elevation
Unknown
Doppler factor
Unknown
Orbital elements
Apogee altitude
944.315 km
Perigee altitude
830.041 km
Semi-major axis
7,265.315 km
Eccentricity
0.00786
Inclination
90.227°
RAAN
78.1079°
Arg. of periapsis
170.5622°
True anomaly
189.55533°
Mean anomaly
189.7058°
Eccentric anomaly
189.63042°
Mean motion
3.50479 °/min
Orbital period
102.72 mins
BSTAR
0.0002276
Loading maneuver chart data...
Computing Atmospheric mass density...
Loading historical data...
Loading historical data...
Loading historical data...
Loading historical data...
Loading historical data...
Loading historical data...
Loading historical data...

Documentation

Showing up to 5 results
|